Location: Beneden-Haastrecht
(52.0012°N, 4.7557°E)
Time: 11:45:52
(UTC+00:00)

Cosmos 1892 - Pass Details

Date: 24 October 2020
Orbit: 504 x 523 km, 82.5° (Epoch: 24 November)

Event Time Altitude Azimuth Distance (km) Brightness Sun altitude
Rises 18:10:05 0° 351° (N) 2,663 6.5 -16.4°
Reaches altitude 10° 18:12:15 10° 355° (N) 1,772 5.5 -16.7°
Maximum altitude 18:16:07 64° 77° (ENE) 585 2.6 -17.3°
Enters shadow 18:19:05 16° 157° (SSE) 1,405 4.6 -17.8°
